Theta_e
342 344 337 334 333 331 331 329 329 333 332 329 331 333 337 340 330 327 345 352 340 339 343 340 338 336 334 334 333 332 334 333 333 333 332 332 331 330 330 331 333 333 330 330 329 329 330 331 330 328 327 326 325 323 321 321 324 326 327 325 324 324 322 322 323 325 326 327 327 328 328 328 329 329 328 328 327 326 325 326 325 326 327 325 325 327 329
337 336 331 331 330 327 329 330 330 331 331 330 331 333 337 338 334 334 339 343 342 340 340 339 335 332 332 333 332 333 334 333 333 332 332 332 331 330 329 330 331 330 329 329 328 328 330 330 330 327 325 324 324 323 321 321 324 326 325 323 324 323 321 321 323 324 326 326 325 326 327 328 329 328 327 328 326 325 325 326 326 326 325 324 325 327 329
339 340 334 332 331 330 329 328 330 331 330 332 331 331 334 333 334 339 338 339 344 342 337 337 333 331 333 333 332 334 333 333 333 332 332 332 330 330 329 330 330 329 329 329 328 328 329 329 329 327 323 323 324 323 321 321 324 325 324 323 324 323 322 321 322 323 325 325 324 325 326 327 328 327 326 327 327 326 327 327 326 326 324 324 326 328 329
335 340 334 330 333 331 326 329 334 332 330 331 331 333 335 331 333 336 332 335 348 345 333 331 332 331 331 331 332 332 332 333 333 332 332 331 329 330 329 329 330 329 329 329 328 329 330 329 330 328 324 322 323 323 321 320 323 324 324 325 325 324 324 323 322 322 323 324 324 324 325 326 327 326 326 327 328 328 329 328 327 327 325 324 327 328 327
335 341 332 329 333 329 329 338 340 331 331 333 331 334 337 336 340 341 336 341 351 342 332 334 335 333 331 331 332 332 332 333 333 331 330 330 329 330 329 329 330 330 330 329 328 329 330 329 331 329 325 323 322 322 321 322 323 324 324 325 325 324 324 324 322 322 323 323 322 323 324 325 326 326 327 328 328 327 328 328 328 328 326 324 326 328 327
337 345 339 333 331 327 333 347 340 327 329 331 328 333 337 338 346 349 346 348 347 337 335 338 337 335 333 332 332 333 333 333 331 330 329 329 329 330 329 330 330 329 330 329 329 330 329 330 331 329 325 324 323 322 323 324 325 325 324 324 324 324 324 323 322 322 323 322 322 323 325 326 326 326 327 328 328 326 327 328 328 328 326 323 325 328 327
338 344 342 331 330 335 341 346 337 329 331 331 330 335 337 339 346 348 345 342 340 335 334 334 333 333 333 332 333 333 332 331 330 330 329 329 329 329 329 329 329 330 330 330 330 330 329 330 329 327 326 327 327 325 325 326 327 327 327 326 325 325 325 323 322 322 322 322 324 326 328 327 327 326 327 328 328 327 326 326 327 328 326 323 325 329 327
333 335 334 329 336 348 348 341 334 332 335 334 331 332 335 338 342 344 343 342 338 333 331 330 332 332 332 332 332 331 330 331 330 329 329 329 329 329 328 328 329 330 330 329 329 329 329 329 329 329 329 330 330 329 327 327 328 327 327 327 327 326 325 323 321 322 322 323 325 327 328 329 329 328 327 327 327 326 326 325 326 328 327 324 325 328 327
332 334 336 334 333 337 342 342 335 331 333 333 332 333 335 338 337 336 341 345 338 331 330 330 331 331 332 333 332 330 330 331 330 330 330 329 330 330 329 329 330 329 328 327 327 329 330 328 328 330 330 330 332 331 328 327 328 328 328 328 328 326 325 322 321 321 322 322 324 325 327 329 330 328 327 326 326 326 326 325 325 326 327 326 326 326 326
334 331 329 331 327 327 340 349 339 330 330 332 337 342 341 339 334 331 338 342 335 330 329 330 331 331 335 339 338 332 331 331 331 331 331 331 331 330 330 329 328 328 328 328 329 330 329 328 329 330 330 330 332 332 329 327 328 329 329 329 328 326 324 322 320 320 319 320 322 324 326 328 329 327 325 325 325 325 325 325 324 326 327 326 325 325 326
332 326 324 329 327 328 342 350 337 329 329 331 337 341 339 337 332 330 333 335 330 330 329 329 331 333 338 347 343 332 331 333 331 332 332 332 332 330 329 329 328 327 328 329 331 330 328 329 330 329 329 331 331 331 329 328 328 328 328 328 327 325 323 321 321 319 318 319 322 323 324 326 326 325 323 324 324 325 325 325 325 325 327 327 326 326 326
332 329 327 329 327 332 348 353 337 329 330 331 332 333 335 337 332 329 332 331 330 331 330 330 334 338 342 346 339 330 332 334 332 333 333 332 331 329 328 328 328 328 329 329 330 329 328 329 329 328 328 329 329 328 327 327 327 327 327 327 327 325 323 321 320 319 318 320 322 322 323 324 325 324 323 324 325 325 325 325 325 325 326 326 326 326 326
332 329 328 327 330 340 347 343 333 328 328 330 331 334 338 335 330 330 332 331 330 331 330 331 335 336 334 334 332 331 333 333 332 334 334 331 331 329 328 329 329 329 329 329 328 328 328 328 328 327 326 325 324 324 324 324 325 325 325 326 326 324 322 321 319 318 319 320 321 322 322 324 324 324 323 324 325 325 324 325 325 325 325 325 324 324 326
331 332 331 328 332 339 336 331 330 328 329 333 336 339 336 329 329 331 330 329 330 330 330 331 331 331 330 330 330 331 330 329 330 332 332 331 330 328 327 329 329 329 329 328 327 328 328 327 327 326 325 324 323 323 323 323 324 325 325 326 326 323 321 320 319 319 320 320 320 320 322 323 323 323 323 324 324 324 325 325 325 324 323 323 323 323 324
331 330 327 327 334 338 331 329 333 333 334 337 336 332 329 328 330 330 327 329 330 328 329 330 329 330 330 329 329 329 328 328 328 329 330 330 328 327 327 327 328 327 327 327 327 327 327 326 326 326 326 325 324 323 323 323 324 325 324 326 327 324 321 320 320 319 320 320 318 319 322 323 323 322 322 322 323 324 324 324 323 322 322 322 321 321 322
332 329 331 337 340 336 330 333 338 337 335 335 331 329 330 328 328 327 328 329 328 327 328 329 329 329 328 328 329 329 328 327 326 326 327 327 326 327 327 326 327 326 326 326 327 327 327 327 327 326 326 326 324 323 323 324 324 324 325 326 327 325 321 320 320 320 321 320 318 318 321 322 322 321 320 320 321 322 323 323 322 322 323 323 322 320 319
341 338 343 344 336 329 327 331 334 331 329 330 330 330 330 328 327 328 327 326 327 328 328 328 328 328 327 326 327 327 327 328 327 326 326 325 325 326 326 326 326 325 325 326 326 326 328 327 327 327 326 325 325 324 324 323 323 324 324 326 327 325 321 320 321 321 322 320 319 319 320 320 320 319 320 320 320 321 321 322 322 322 323 324 323 322 320
340 334 334 333 329 328 329 328 329 329 329 331 330 328 328 328 327 326 326 327 328 327 327 327 327 325 326 326 326 326 327 328 327 326 326 325 325 325 325 325 324 323 324 326 326 327 328 327 327 327 326 325 324 324 324 324 324 323 323 324 326 324 321 320 321 322 322 320 320 321 320 319 319 320 320 321 321 321 321 322 322 323 324 324 324 323 320
332 331 331 331 328 329 328 326 327 329 328 329 329 326 326 327 326 326 327 327 327 326 326 326 325 325 325 325 324 325 326 327 327 326 325 325 324 324 324 324 323 323 324 325 326 326 327 327 327 326 325 324 324 325 325 325 324 323 323 324 324 322 321 321 321 322 322 321 321 321 320 320 320 320 320 321 321 321 321 322 322 323 323 324 324 324 322
335 335 332 329 326 326 327 326 326 327 326 328 327 325 325 325 326 326 326 325 325 326 325 325 324 325 324 324 324 325 325 326 327 325 325 325 324 324 324 323 323 324 324 325 327 327 326 327 326 324 324 324 324 325 326 325 323 323 323 324 323 322 321 321 321 321 322 322 321 321 321 321 321 320 320 321 321 321 321 322 322 322 322 323 323 324 324
342 332 324 325 327 326 327 326 326 326 326 326 325 325 325 325 325 325 325 324 325 324 324 325 325 324 324 324 325 326 326 327 326 325 325 325 325 324 324 324 324 324 324 325 327 326 326 326 325 323 323 323 324 325 325 324 323 322 322 322 322 321 321 322 321 321 322 322 321 320 321 321 321 321 321 321 321 322 321 322 321 321 321 322 322 323 324
342 333 324 325 330 329 326 325 326 327 326 326 326 326 325 325 324 324 324 324 324 324 324 325 325 324 325 325 325 326 326 326 326 325 325 325 324 324 325 325 324 325 324 324 325 326 326 325 323 323 323 323 323 323 324 323 323 322 322 322 321 321 321 321 321 321 322 322 321 321 321 321 321 321 322 322 321 322 322 322 321 321 321 321 322 323 324
334 332 326 324 328 329 326 324 326 325 325 326 325 324 323 323 323 323 323 323 324 324 324 324 325 325 325 325 325 325 324 324 325 326 325 325 325 324 324 324 325 324 324 324 324 325 325 323 322 323 322 322 322 323 323 323 323 322 322 322 321 321 320 321 321 321 321 321 321 321 321 321 321 321 322 322 322 322 322 322 322 322 321 321 321 322 324
327 326 325 324 325 326 324 324 324 324 323 323 323 322 323 323 323 323 324 323 323 323 323 324 326 325 325 325 325 324 324 324 324 325 324 324 325 324 324 324 325 325 324 323 324 325 324 322 322 322 322 322 322 322 323 323 323 323 323 322 321 321 321 320 321 321 321 321 320 320 321 321 321 321 322 322 322 322 322 322 322 322 322 322 321 321 322
324 324 325 324 324 325 324 324 323 322 322 322 322 323 323 323 324 323 323 323 323 324 325 327 326 326 325 325 325 324 324 323 323 324 324 323 323 323 323 324 325 325 324 324 324 323 322 322 322 322 322 322 323 323 323 323 323 323 323 322 322 321 321 321 321 322 322 322 321 321 321 321 321 322 322 322 322 322 322 322 323 323 322 322 321 321 321
323 324 323 323 323 323 323 323 322 322 323 322 323 324 324 323 323 323 323 323 324 325 326 326 326 325 325 325 325 324 324 322 322 323 322 322 321 322 322 323 324 324 323 324 323 321 321 322 323 322 323 323 323 323 323 323 323 322 322 323 323 322 322 322 322 322 323 322 321 321 322 322 322 322 322 322 322 322 323 323 323 323 322 322 321 321 321
321 321 322 322 322 322 322 322 322 323 324 323 323 324 324 323 323 324 323 324 324 324 325 325 325 325 325 324 324 324 323 323 322 322 322 322 322 322 322 322 323 323 323 322 322 322 321 322 323 324 324 324 323 322 321 322 322 323 323 323 323 323 323 323 322 323 322 322 321 321 322 322 322 322 322 321 321 322 323 323 323 323 323 321 321 321 321
322 322 321 322 322 322 322 322 322 323 323 323 323 324 324 324 324 324 324 324 325 324 324 325 325 325 324 323 323 324 323 323 323 323 323 322 322 322 322 322 322 322 322 322 321 321 322 322 324 325 325 324 323 322 322 322 323 322 323 323 323 323 323 323 322 322 322 321 321 321 322 322 322 322 322 322 322 323 323 323 322 322 322 321 321 321 320
321 321 321 320 321 322 322 323 323 324 324 324 324 324 324 325 324 324 324 325 325 325 324 325 326 325 324 323 324 324 323 323 323 323 324 324 323 323 323 322 322 322 321 321 322 322 322 323 324 324 323 323 322 322 322 323 323 323 323 323 323 323 323 322 322 322 321 321 321 321 322 322 322 322 322 322 322 323 323 322 322 322 321 321 321 321 321
321 321 321 321 322 322 323 324 324 324 324 325 325 324 324 325 325 324 325 325 325 325 324 324 325 325 324 324 323 323 323 323 323 323 324 324 324 323 322 321 322 322 322 322 322 322 322 323 323 323 323 324 324 324 324 324 324 323 323 322 322 323 323 322 322 322 322 322 322 322 322 322 322 322 321 321 321 321 321 321 321 321 321 321 320 320 320
321 321 322 322 323 324 324 324 324 324 325 325 325 324 324 325 324 325 325 325 325 325 324 324 324 324 324 324 323 322 322 323 322 323 323 324 323 323 322 321 321 322 322 322 322 322 323 324 324 324 324 325 326 326 325 324 324 323 323 324 323 323 323 323 323 323 323 323 323 323 322 321 320 320 320 320 320 321 320 321 320 320 320 320 320 319 319
322 322 323 323 323 323 324 324 324 325 324 324 324 324 324 324 324 323 323 323 323 323 322 323 322 322 322 323 323 323 322 322 322 323 324 324 323 323 323 322 321 321 322 322 323 323 322 323 324 324 324 324 325 324 323 323 324 324 323 323 322 323 323 322 322 322 322 323 322 321 320 319 319 320 320 320 320 320 320 320 320 320 320 320 319 319 318
322 323 323 323 323 323 323 324 324 323 323 323 323 323 323 323 322 322 321 321 321 320 320 321 321 321 322 322 323 323 322 322 323 324 325 325 324 323 323 323 322 322 323 323 323 322 322 322 323 322 321 322 323 322 321 321 323 323 322 321 322 323 323 323 322 322 322 322 321 320 319 318 319 319 319 319 320 320 320 320 320 319 319 319 318 318 317
322 322 322 322 322 322 323 323 323 322 322 322 323 323 322 322 321 321 321 320 320 320 320 321 321 322 322 322 322 323 323 323 323 324 324 324 324 323 323 322 322 323 322 322 322 322 322 322 320 318 319 321 321 320 319 320 321 321 322 322 322 323 323 322 322 322 321 321 321 321 320 320 319 319 319 319 319 319 319 318 318 318 318 317 317 317 317
321 322 322 322 322 323 322 323 323 323 323 323 323 323 322 322 321 320 320 319 319 320 321 320 320 321 322 321 321 322 322 321 321 321 321 321 322 322 322 322 322 322 321 321 321 321 320 320 317 316 318 319 318 316 317 319 320 321 322 322 321 322 322 321 321 321 321 321 321 321 320 319 319 319 319 318 318 318 318 317 316 315 315 315 315 315 315
322 323 323 323 323 323 323 323 323 323 323 323 322 322 322 322 321 320 320 320 320 321 321 319 318 319 320 320 321 321 321 320 320 320 320 320 320 321 321 321 321 321 321 321 320 319 318 318 317 315 315 315 313 313 315 316 317 319 321 321 321 321 321 321 321 320 320 320 320 320 319 319 318 318 317 317 316 316 317 316 314 314 313 313 313 314 314
323 323 323 323 322 323 323 322 322 323 322 322 322 321 321 321 320 320 320 320 320 320 320 319 318 318 319 319 319 319 319 319 319 319 319 319 320 321 321 320 319 319 320 320 319 318 317 317 315 314 313 313 312 313 315 316 316 318 320 320 320 320 321 320 320 320 319 319 318 317 316 315 315 314 313 313 314 314 314 314 313 313 312 312 312 312 312
323 323 323 323 323 323 322 322 322 322 321 321 321 321 320 320 320 320 320 320 319 319 320 319 318 317 318 318 318 318 317 318 318 318 318 319 319 319 319 318 317 317 318 318 318 317 317 315 313 313 313 313 313 314 316 317 317 317 318 318 318 319 319 318 318 317 315 313 311 309 308 308 309 309 309 309 311 311 311 311 311 311 311 311 310 309 309
322 322 322 322 322 322 322 322 321 321 320 320 320 320 320 321 320 320 320 320 319 319 319 318 317 316 317 317 317 317 318 318 318 317 318 318 318 318 318 317 316 316 316 316 315 313 313 312 311 311 312 313 314 314 315 315 315 316 316 316 316 316 315 315 314 312 310 308 306 305 304 305 306 306 306 307 307 308 308 308 308 308 308 307 307 307 306
322 322 321 322 322 322 322 321 321 321 320 320 320 320 320 320 320 320 320 319 318 318 318 317 316 316 317 316 316 318 319 319 318 318 318 319 319 318 317 316 315 315 315 314 311 307 307 307 309 310 312 312 313 313 313 313 314 313 313 314 314 313 312 312 310 309 307 306 304 303 303 303 303 303 303 303 303 303 303 304 303 303 303 303 303 303 303
321 321 322 322 322 321 321 321 321 321 320 319 319 319 319 319 319 319 318 317 318 318 318 317 316 316 316 315 316 318 320 319 318 318 318 318 318 317 316 314 314 314 313 311 308 306 305 306 307 309 310 311 312 312 312 312 312 312 312 312 311 310 310 309 308 306 304 303 302 301 301 301 301 301 300 300 300 300 300 300 300 300 300 300 300 300 300
321 322 321 321 321 321 321 321 321 320 319 319 319 319 318 318 319 318 317 317 318 318 318 317 317 317 316 316 318 319 319 318 318 317 317 317 317 316 315 314 313 312 311 310 309 307 306 306 306 308 309 310 311 311 311 311 311 310 310 310 309 309 308 307 307 305 303 301 300 300 300 300 300 300 299 299 298 298 298 298 298 299 299 298 298 298 298
322 322 321 321 321 321 321 320 320 320 319 319 319 319 318 318 317 317 317 317 318 318 318 318 318 317 317 317 318 319 318 318 317 317 316 316 315 315 314 313 312 311 311 310 310 308 307 306 306 307 309 310 310 310 310 310 310 309 309 309 308 308 307 306 305 303 301 300 300 299 299 300 300 299 298 298 298 298 297 297 297 298 298 298 297 297 297
322 322 321 321 321 320 320 320 319 319 319 319 319 318 318 317 317 317 317 317 317 317 317 318 319 318 318 317 318 318 318 318 317 317 316 315 314 313 313 313 312 310 309 309 308 307 307 307 306 306 307 308 308 309 309 309 308 308 307 307 307 306 305 304 303 301 299 299 299 299 300 300 299 299 298 298 297 297 297 297 297 297 297 297 297 297 297
321 320 320 320 320 319 319 319 319 319 319 319 319 318 318 317 317 317 317 317 317 316 317 318 319 319 318 318 317 317 317 317 316 316 315 315 314 313 312 311 310 310 309 308 307 306 306 305 305 305 305 306 306 306 306 306 306 305 304 304 304 303 302 302 301 299 298 298 298 299 299 299 299 298 298 297 297 297 297 297 296 296 297 296 296 296 296
318 319 318 319 319 318 319 318 318 319 320 320 319 318 318 317 317 316 316 316 316 316 317 318 318 318 318 318 317 316 316 315 314 313 313 313 312 312 311 310 310 310 309 308 307 305 304 304 304 304 304 304 305 304 304 304 303 302 301 300 300 300 300 300 300 299 298 298 298 298 298 298 298 298 297 297 297 296 296 296 296 296 296 296 296 296 295
318 318 318 318 318 318 318 318 318 318 319 318 317 317 316 316 316 316 316 316 316 316 317 317 316 316 316 317 316 316 315 313 312 311 311 311 311 311 311 310 310 309 308 307 306 304 303 303 303 303 303 303 303 303 302 302 302 300 299 299 298 298 298 299 299 298 298 298 298 297 297 297 297 297 297 296 296 296 296 296 296 295 295 295 295 295 295
318 318 318 317 317 318 318 318 318 318 317 317 316 316 316 315 315 317 317 316 316 316 317 316 314 313 314 314 314 314 314 313 312 311 311 310 310 310 308 307 307 306 306 306 305 304 303 303 303 303 303 302 302 301 301 300 300 299 299 298 298 297 298 298 298 297 297 297 297 297 296 297 296 296 296 296 295 295 295 295 294 294 294 293 293 293 293
318 317 317 317 317 316 317 317 317 317 317 316 316 316 315 315 315 317 317 317 316 316 316 315 314 313 313 313 313 312 312 311 311 310 310 309 308 307 306 305 304 304 305 305 305 304 302 301 301 301 301 301 300 300 299 299 298 298 298 298 298 297 297 297 297 297 297 297 296 296 296 296 296 295 295 295 295 294 294 293 293 293 292 291 291 291 291
318 317 317 317 316 316 316 316 316 316 317 316 316 316 315 315 316 317 317 316 316 315 315 315 315 314 313 313 312 312 311 310 310 309 308 307 306 305 305 304 304 304 304 304 304 303 302 300 300 299 299 299 299 299 298 298 298 298 298 298 297 297 296 296 296 296 296 296 296 296 295 295 295 295 294 294 293 293 292 292 291 291 290 290 290 290 290
316 316 316 316 316 316 315 314 314 315 316 316 315 316 316 316 316 317 317 316 315 315 315 314 314 313 312 311 310 310 309 309 308 307 306 305 304 304 304 304 303 303 303 303 302 301 301 300 299 299 299 299 298 298 298 298 298 298 297 297 297 296 296 296 296 296 295 295 295 295 295 295 294 294 293 293 292 291 291 291 290 290 290 290 290 290 290
314 315 315 315 314 314 313 313 313 314 316 316 316 316 317 317 317 317 316 316 315 315 314 313 312 311 310 309 309 309 308 308 307 307 306 305 304 303 303 302 302 301 301 300 300 300 299 299 298 298 298 298 298 298 297 297 297 297 297 297 296 296 296 296 296 295 295 295 294 294 294 294 293 293 292 292 291 291 291 291 290 290 290 290 290 290 290
Wind_Speed
5 5 4 4 2 3 4 4 6 9 8 5 5 7 7 7 6 8 9 9 9 10 11 14 14 13 14 15 20 23 23 22 20 17 15 12 9 7 7 9 12 11 8 5 5 7 8 9 11 11 10 11 10 10 12 12 9 8 8 10 11 9 9 11 11 12 14 16 18 20 19 18 16 17 17 15 14 15 16 18 20 22 24 26 27 27 26
3 3 3 2 1 2 4 6 8 10 10 9 7 7 7 9 9 11 9 9 11 10 9 9 10 16 19 20 22 23 23 23 21 18 15 12 10 9 9 11 12 10 6 4 6 9 10 11 13 12 11 10 9 10 12 11 8 8 8 9 9 8 9 11 11 11 13 15 17 18 19 19 18 18 17 15 14 14 15 17 19 21 22 23 25 26 26
5 5 3 3 4 3 4 6 8 9 9 8 6 5 5 7 8 8 5 6 8 7 3 5 13 21 23 21 22 23 24 23 20 17 15 13 12 12 12 12 11 8 6 6 7 10 11 11 12 11 10 9 9 9 11 9 8 9 8 7 8 9 10 12 11 12 14 15 16 17 18 19 19 18 17 15 14 15 16 17 18 19 20 21 23 25 25
4 5 4 5 6 5 5 6 6 7 7 5 5 5 3 5 5 2 2 3 6 4 3 9 16 22 21 19 20 21 22 22 20 18 17 16 15 14 14 14 11 9 8 7 8 9 10 11 11 11 9 8 7 8 9 8 8 10 8 6 8 10 11 13 13 14 15 15 15 16 17 19 19 18 17 16 15 16 17 17 17 18 19 20 21 23 24
4 5 1 2 4 6 5 6 4 5 6 6 7 5 1 3 3 5 4 5 5 5 8 10 11 13 16 18 20 21 22 22 20 19 18 17 17 16 15 13 11 10 9 8 7 8 10 10 11 10 8 7 7 7 7 8 8 8 7 7 9 10 11 13 14 15 16 16 16 16 17 18 18 17 16 16 16 17 17 17 17 18 19 19 20 22 23
4 6 2 3 3 3 6 7 4 3 5 7 9 6 4 5 3 5 4 4 6 7 9 12 12 13 18 22 23 22 24 24 21 19 18 18 17 14 13 12 11 10 10 8 7 8 9 10 11 10 7 6 8 7 7 8 9 8 8 8 9 10 12 14 15 16 17 16 16 16 16 15 16 16 16 17 16 17 18 18 17 18 19 20 20 21 22
3 3 4 2 5 6 7 7 6 7 8 7 8 6 4 4 4 8 8 8 9 8 10 15 17 20 22 23 23 22 21 22 20 20 20 18 16 14 12 11 11 11 10 8 7 7 8 11 11 8 6 7 9 9 8 10 11 10 10 10 10 11 13 14 15 15 15 13 13 14 14 14 14 14 16 18 17 17 17 18 17 16 18 20 20 20 21
2 1 2 4 7 6 5 8 8 7 6 4 4 3 4 5 3 9 11 8 8 9 13 18 19 21 22 20 21 21 19 19 19 19 20 18 15 13 12 10 10 10 8 6 6 7 8 10 10 8 7 8 9 9 9 10 12 12 12 12 11 12 14 14 12 10 11 11 13 14 15 14 14 14 16 16 17 17 17 17 17 16 15 18 20 21 22
3 3 3 3 4 6 6 7 7 5 4 4 5 3 2 6 4 6 11 9 7 11 16 20 21 21 17 12 14 20 20 19 19 17 17 15 13 12 12 10 9 8 7 6 6 7 9 10 9 8 9 9 9 9 10 10 11 12 13 13 12 13 14 12 9 9 11 12 13 14 15 15 15 15 15 14 16 17 17 17 18 16 13 15 19 22 24
3 4 2 2 3 5 6 8 8 7 7 6 5 5 1 7 7 4 12 11 9 12 15 18 20 17 10 3 8 18 22 20 19 17 15 14 13 13 11 9 9 8 8 7 7 7 9 10 9 8 9 10 11 11 11 10 10 11 13 13 12 12 12 10 9 11 12 13 13 13 14 14 14 16 15 14 14 15 17 18 18 17 13 13 15 20 25
3 5 3 3 4 5 7 9 9 8 5 5 7 4 3 6 5 5 13 13 13 17 18 18 16 10 4 4 9 16 21 21 20 18 16 15 14 11 8 7 9 9 8 8 8 9 10 10 8 8 10 10 12 14 13 12 11 11 13 12 11 11 10 9 10 12 13 13 13 13 13 13 13 14 14 13 11 13 16 17 17 16 14 13 15 19 23
5 6 4 3 3 5 7 7 5 6 3 5 7 1 7 5 0 8 16 17 17 20 21 18 11 6 5 5 6 11 18 21 21 19 16 16 14 10 8 9 10 9 9 10 10 10 10 10 9 9 9 10 12 14 14 13 12 12 11 11 10 10 10 10 11 12 13 13 12 13 14 13 11 11 12 12 11 13 15 16 15 16 15 13 15 18 20
6 6 4 3 3 5 6 4 2 3 1 3 3 5 7 5 7 12 16 18 18 19 19 14 8 7 6 3 2 8 15 17 18 17 16 16 14 11 10 11 10 11 12 12 11 9 8 8 10 10 10 10 12 12 12 13 13 11 10 8 8 9 10 10 11 11 12 12 12 12 13 12 9 9 10 11 12 13 14 13 14 16 16 15 16 18 18
4 4 3 3 4 5 5 3 2 3 1 4 5 5 7 9 12 12 11 11 12 12 13 10 5 4 4 2 2 6 7 8 10 13 15 16 15 13 12 12 12 13 13 11 10 8 7 7 8 9 9 11 12 11 12 12 10 9 8 7 7 9 10 9 10 11 12 11 10 10 10 9 9 9 10 12 12 12 11 11 14 18 18 16 16 16 17
3 2 3 2 5 6 6 5 2 2 3 6 7 8 9 9 10 9 7 7 8 7 8 8 6 5 5 3 2 4 5 5 7 12 15 17 17 16 15 14 13 12 12 11 10 9 8 7 7 8 10 12 12 12 12 10 8 8 7 7 8 9 10 10 10 10 11 10 10 9 8 7 8 10 11 12 12 11 10 12 16 18 18 17 16 15 15
4 4 5 5 5 7 8 7 3 3 8 11 12 13 11 8 7 6 5 5 5 4 5 8 7 5 3 3 3 4 5 6 10 13 15 16 17 16 16 15 14 13 13 13 12 11 10 8 7 9 12 13 12 12 11 8 7 8 8 9 10 9 10 10 10 10 11 9 8 8 7 7 9 11 12 12 12 11 11 13 15 16 16 18 18 15 14
4 4 5 7 9 11 10 7 7 10 13 14 14 12 10 7 6 5 5 5 6 6 6 8 7 5 4 5 6 8 8 9 11 13 14 16 16 15 16 15 15 15 13 13 13 13 12 10 10 12 13 12 12 13 11 9 9 10 10 10 10 9 9 9 9 10 10 7 6 8 8 9 10 10 12 13 13 12 12 13 15 15 17 19 19 17 15
3 1 3 7 9 10 10 10 10 11 14 16 15 9 6 5 5 4 5 6 7 7 6 5 4 4 5 7 9 11 12 13 14 14 14 14 13 14 16 16 16 15 13 14 16 16 15 14 14 14 12 10 11 12 11 10 10 11 12 12 10 8 7 8 9 10 7 5 7 10 10 9 9 10 12 13 14 14 14 14 14 14 15 17 18 19 18
3 2 3 1 3 4 8 11 11 9 10 14 12 7 6 8 8 6 6 5 5 4 2 4 5 7 9 11 12 13 14 14 15 16 15 14 14 15 16 16 16 14 13 14 16 16 16 14 14 14 12 9 8 9 9 9 9 10 11 11 10 7 6 7 9 9 5 6 10 13 12 12 12 11 12 13 13 15 15 14 14 13 14 15 17 17 18
3 3 2 8 17 15 11 12 13 12 12 13 11 11 13 13 12 10 8 7 4 1 2 4 6 8 9 10 11 12 13 13 15 17 16 14 14 14 14 14 14 14 14 14 14 15 15 13 13 13 11 8 7 7 8 9 9 9 7 7 8 7 7 7 9 8 6 8 12 14 14 15 14 13 12 12 14 17 16 14 14 14 13 15 16 16 17
1 0 4 12 17 15 14 15 15 15 16 16 14 14 12 10 10 9 6 5 5 4 4 5 6 6 6 6 6 7 8 10 14 15 14 13 12 11 11 10 11 12 13 14 14 15 14 12 11 12 10 8 8 8 8 9 7 3 3 5 6 8 7 7 9 9 8 10 12 13 14 16 15 13 13 15 17 18 17 14 13 13 13 14 15 15 15
2 2 3 6 5 3 7 11 12 10 10 10 10 9 8 8 7 7 6 7 7 7 6 6 6 6 5 4 4 5 6 9 12 13 13 13 13 11 10 9 10 11 12 13 14 14 12 10 10 10 9 8 7 8 10 10 7 5 7 6 7 8 7 7 9 9 9 10 11 12 13 15 16 16 16 16 17 18 17 14 12 12 13 14 13 13 13
3 6 7 6 5 7 11 12 11 9 7 6 6 6 7 7 6 6 7 8 7 7 6 6 4 4 4 4 4 5 6 7 10 11 12 13 12 11 11 11 11 11 12 13 14 12 10 8 8 8 7 6 6 7 9 9 8 8 9 8 8 8 7 7 7 8 9 11 12 14 14 15 16 18 18 17 15 14 16 15 13 12 13 14 13 11 10
4 7 11 11 8 10 13 11 8 6 5 5 5 5 5 6 6 6 6 7 7 7 7 6 4 4 4 5 6 6 6 7 10 11 12 12 12 12 12 12 11 11 12 12 11 10 9 9 8 8 8 8 8 9 10 10 10 10 11 11 11 10 9 8 8 9 12 14 16 17 16 15 15 17 19 19 15 13 14 15 15 15 14 14 14 13 11
5 9 12 10 8 11 13 8 3 3 3 4 5 6 6 6 5 5 4 5 6 7 6 4 4 6 7 7 7 8 7 7 9 12 13 13 12 12 12 11 11 11 11 10 9 10 11 13 13 12 12 11 10 10 11 12 12 11 11 12 12 11 10 11 11 11 12 14 15 15 14 13 13 15 18 18 17 15 14 14 14 15 15 14 14 14 13
9 12 11 7 6 10 11 8 5 5 6 6 7 7 5 3 3 2 2 3 4 5 5 5 6 7 6 6 7 8 8 7 8 11 12 12 12 11 10 9 10 10 11 11 11 12 14 14 14 14 13 11 10 9 10 12 12 12 12 13 13 12 12 12 12 10 10 11 12 11 10 10 12 14 16 17 16 14 14 14 15 16 16 15 14 13 13
6 10 9 7 8 12 13 11 10 10 8 7 6 5 3 2 1 0 1 3 4 5 5 6 7 6 5 7 8 8 7 6 6 8 10 11 12 11 10 10 10 11 12 13 13 13 14 14 14 14 12 10 10 11 11 12 12 11 10 10 10 10 10 10 9 8 9 9 10 9 9 9 10 13 16 16 15 11 12 14 16 16 16 15 13 13 13
7 10 10 8 10 15 15 13 13 12 9 7 7 5 4 4 3 1 1 2 5 6 6 6 6 6 7 8 8 7 7 6 6 8 9 10 10 10 9 10 11 13 14 14 14 14 14 14 13 13 11 10 10 10 10 10 10 9 7 5 4 5 5 4 4 5 6 7 7 7 8 8 10 12 13 13 11 9 10 12 13 13 13 12 12 13 13
6 12 13 12 11 15 17 16 15 13 11 8 7 5 4 3 2 1 1 2 4 5 5 5 5 6 7 7 6 6 8 8 9 9 8 8 8 8 9 10 12 14 15 14 14 14 13 11 12 11 10 10 9 9 8 7 6 7 7 5 4 3 3 3 3 3 4 5 5 5 6 8 10 11 11 9 8 8 8 9 10 11 12 12 14 14 14
2 9 11 9 11 16 17 15 12 10 8 7 5 4 3 2 1 1 1 1 2 3 3 4 5 5 6 7 7 9 9 10 11 10 9 9 9 10 11 11 13 14 14 12 11 11 10 11 13 12 11 9 8 7 6 6 6 6 6 5 4 4 4 4 3 2 2 2 2 4 6 8 9 9 8 7 7 7 6 7 9 10 12 14 15 16 15
10 13 14 15 16 15 13 11 10 9 8 6 5 5 4 2 2 3 4 3 2 3 4 6 7 7 7 8 10 12 12 12 12 12 12 12 13 14 14 12 12 12 11 10 9 9 8 8 8 8 8 7 5 4 4 5 7 7 6 6 5 4 3 3 2 1 1 1 2 3 5 7 7 7 6 6 6 6 6 7 8 9 11 13 14 15 15
17 18 17 16 14 12 12 12 11 10 8 5 4 5 5 3 3 4 4 4 5 6 8 10 11 12 12 11 11 12 13 13 13 13 13 14 14 14 12 10 11 12 12 10 10 10 8 7 7 7 6 6 5 5 5 4 6 7 6 4 4 3 3 2 2 2 2 2 2 3 4 5 5 5 6 7 7 6 6 7 7 8 10 11 12 12 13
20 20 18 17 16 15 15 14 12 10 9 7 7 8 6 4 5 5 6 7 8 10 11 12 13 15 15 14 13 13 14 15 14 12 11 10 10 8 7 8 10 11 10 8 7 7 8 9 10 10 8 5 4 6 7 6 5 5 4 3 4 6 5 4 3 2 2 2 2 2 3 3 4 4 5 6 7 6 6 7 8 8 9 10 10 10 10
19 18 18 17 15 14 15 15 13 12 12 11 9 7 6 6 6 6 7 8 9 10 10 11 13 15 15 14 12 11 11 11 10 9 8 7 7 6 6 6 6 6 6 6 5 5 6 8 8 7 6 4 1 1 1 1 1 2 5 7 8 8 7 5 4 3 3 3 2 1 2 2 2 3 4 5 5 5 6 7 7 8 9 9 8 8 8
19 16 16 15 14 14 15 15 14 13 13 11 8 6 5 5 6 7 7 7 8 8 8 10 12 13 13 12 8 6 6 6 6 5 4 5 6 6 5 4 3 3 4 4 5 6 6 7 6 3 2 1 2 4 5 5 5 6 8 8 7 5 5 4 3 3 3 3 3 2 0 1 3 4 5 5 6 5 5 6 6 7 8 9 8 7 7
19 20 21 19 17 17 16 14 12 11 9 7 6 5 3 3 5 5 4 5 5 6 7 9 10 10 9 7 3 2 2 2 2 2 3 5 6 6 5 4 2 3 6 10 11 10 10 9 7 3 2 2 3 4 4 4 4 5 6 6 5 4 4 3 3 2 2 2 1 1 2 3 4 4 5 6 6 6 6 6 6 7 8 8 8 7 6
20 22 22 20 19 18 15 12 9 8 6 5 5 5 3 1 2 1 2 3 4 5 8 8 8 6 5 3 1 1 0 1 0 1 1 2 3 5 5 4 4 6 9 10 9 8 8 6 3 2 3 3 3 4 3 2 3 4 4 4 4 4 3 3 3 3 1 1 2 4 4 5 5 5 5 6 5 5 5 6 6 7 8 8 8 8 7
22 22 21 20 17 15 13 11 9 7 7 7 7 6 4 2 0 2 3 3 4 6 7 7 6 4 4 3 3 4 3 3 3 3 2 3 4 6 8 9 9 9 9 6 3 4 5 4 2 3 4 3 4 5 4 3 3 3 3 3 3 3 3 2 1 0 2 4 5 5 6 5 5 4 4 4 4 3 3 4 4 5 6 7 8 8 7
22 20 18 16 14 14 13 12 10 9 8 7 7 7 5 2 2 3 3 4 6 7 7 6 4 3 3 2 2 1 2 3 3 4 6 7 7 7 9 10 8 5 3 1 1 1 2 3 3 3 4 4 5 5 5 3 2 2 3 3 3 2 2 3 4 5 6 7 7 7 6 4 4 4 4 4 4 5 5 5 5 5 6 6 7 7 7
19 17 16 15 15 15 13 12 11 11 9 7 6 5 4 2 1 1 3 6 7 7 6 4 2 2 2 2 1 3 4 4 4 6 8 9 9 9 10 9 6 4 3 3 3 4 4 3 3 5 5 5 4 4 4 3 2 3 3 3 3 4 4 6 7 8 9 9 9 8 7 6 5 6 6 7 7 8 8 8 8 8 8 8 8 8 8
16 16 15 15 14 14 13 11 11 10 8 7 6 4 2 0 2 3 4 4 5 5 3 1 1 2 3 3 3 4 5 6 8 10 12 11 11 11 10 9 7 6 6 5 4 4 4 3 3 4 4 4 4 4 4 3 3 3 3 3 3 4 5 6 7 9 10 10 9 9 8 8 8 8 9 9 9 9 9 9 9 9 9 10 10 9 8
14 13 14 14 15 15 13 11 9 9 8 6 4 2 1 2 3 3 2 1 2 2 2 4 4 4 4 4 5 6 8 9 10 12 12 11 9 8 8 9 9 7 5 3 3 2 2 2 3 3 2 3 4 4 4 4 4 4 3 3 4 4 5 6 7 9 9 7 7 8 9 9 9 10 11 12 12 10 9 8 7 7 8 9 9 9 8
13 13 15 16 16 15 12 10 9 8 6 3 1 1 1 1 0 1 1 1 1 2 4 5 6 6 6 6 6 8 10 11 11 11 11 10 7 4 5 8 8 5 1 1 2 2 2 0 1 2 2 2 2 2 3 4 4 4 3 4 5 5 5 5 6 6 5 5 6 7 7 8 9 9 10 10 9 8 7 7 7 7 7 7 7 7 7
15 15 15 15 14 13 11 9 8 6 4 2 1 1 1 1 2 2 2 2 2 3 3 5 6 6 6 5 6 8 10 11 10 10 10 11 9 6 4 5 4 2 1 3 4 4 4 3 2 1 1 1 1 2 3 3 2 2 3 4 4 4 3 4 4 4 4 5 6 6 6 7 7 6 6 6 6 5 4 4 5 4 4 4 4 5 5
14 13 13 12 11 10 9 7 5 4 3 3 3 3 3 2 2 2 2 2 2 2 3 4 5 6 6 6 7 8 9 10 9 8 8 8 7 5 3 2 1 2 3 5 6 6 6 5 4 3 3 3 3 3 3 2 2 3 3 3 3 3 2 2 2 3 5 6 6 6 5 5 4 3 4 5 5 4 3 2 2 1 2 2 3 3 3
13 12 11 10 9 8 6 5 5 4 3 3 3 4 3 3 2 2 2 2 3 4 4 4 4 6 8 9 10 10 12 11 9 7 5 4 3 3 1 1 3 4 5 6 7 7 6 6 5 5 4 4 5 6 6 5 4 5 4 4 3 2 1 2 4 5 4 3 3 3 3 2 0 2 3 4 4 3 2 2 2 3 4 4 4 3 3
11 10 9 7 7 7 6 6 5 5 4 3 4 5 4 4 4 4 4 4 5 6 7 7 7 8 10 11 11 12 12 11 10 7 4 2 1 1 0 3 5 5 6 6 5 5 5 4 4 4 4 4 6 7 7 6 6 6 5 5 6 4 4 6 6 5 3 2 3 3 2 2 3 4 5 6 7 7 7 7 7 7 7 7 7 6 6
9 8 7 6 6 6 6 6 6 6 5 6 5 5 4 5 5 5 6 6 8 9 11 11 11 11 12 12 12 11 9 7 6 6 5 3 2 1 1 2 3 4 5 5 4 3 4 3 2 2 4 5 6 7 6 5 5 4 3 6 7 5 4 4 3 3 3 2 2 1 2 4 6 7 9 9 10 10 10 10 10 10 9 9 9 9 9
7 6 6 7 6 6 6 7 7 6 7 7 6 5 5 6 7 7 8 9 11 13 14 13 12 12 11 10 10 9 8 5 4 4 5 5 3 1 1 0 1 1 2 4 4 3 2 2 1 2 4 5 5 4 3 4 3 3 5 5 4 4 3 2 1 1 1 2 3 4 6 7 8 9 10 10 11 11 11 10 10 10 9 7 6 6 7
8 7 7 7 6 6 6 6 6 5 5 6 6 5 5 6 8 10 11 12 13 14 14 13 11 9 8 8 8 8 8 5 3 3 4 4 2 1 1 2 3 2 2 2 3 3 2 2 3 3 4 5 4 2 1 3 3 3 3 2 3 3 3 2 1 2 4 5 6 7 8 9 10 10 10 11 11 11 9 8 7 7 6 6 7 7 8
6 5 6 7 6 5 5 4 4 5 5 5 5 5 5 6 10 12 13 13 13 13 13 12 10 8 8 8 9 8 7 6 5 4 4 3 2 2 2 3 3 3 3 2 1 1 2 4 5 5 5 5 4 1 3 4 4 2 0 1 1 2 1 2 4 5 7 8 9 10 10 11 11 11 10 10 9 8 6 5 5 5 5 6 6 7 8
6 7 7 7 5 4 3 3 3 4 6 6 7 7 7 8 12 15 15 13 13 13 13 12 11 10 9 9 9 8 7 7 7 6 5 4 3 3 3 3 3 2 3 3 3 1 2 4 6 7 7 5 3 2 4 4 3 2 1 3 3 3 4 6 8 10 11 10 10 10 10 10 10 10 9 7 7 7 6 6 5 5 5 5 6 7 8
Wind_Direction
223 199 223 251 230 236 255 266 267 271 272 245 197 215 212 157 166 241 235 194 201 226 221 212 203 183 176 171 162 158 161 165 169 172 176 188 195 196 203 211 216 220 228 260 307 318 321 331 335 333 328 323 328 334 332 333 336 335 338 341 342 348 356 356 353 357 2 2 359 356 352 344 334 332 332 331 336 347 352 352 348 343 339 340 342 343 342
283 269 272 273 286 289 290 294 284 272 260 241 221 220 203 178 203 233 221 203 218 228 226 222 195 172 165 159 156 159 164 169 173 175 182 191 190 188 198 205 210 218 236 280 316 319 320 326 329 328 322 323 332 335 332 338 349 352 351 347 348 359 360 355 354 355 358 360 356 352 352 349 340 335 333 330 330 339 348 353 351 344 341 343 347 348 348
306 304 327 334 352 343 301 297 294 281 266 252 245 245 212 197 225 242 222 213 243 258 239 179 161 158 155 151 154 163 170 174 176 179 185 188 187 195 208 209 213 226 248 281 306 313 315 319 323 322 318 325 334 331 329 337 351 355 351 346 352 0 356 350 351 350 348 351 351 347 347 347 344 341 342 340 335 334 338 345 348 347 346 349 352 353 354
274 291 343 338 351 1 317 295 286 279 282 273 266 271 248 229 229 194 136 214 252 259 105 122 141 146 145 149 157 165 172 177 181 183 185 188 194 206 216 217 223 235 251 276 291 301 310 315 323 324 322 329 331 322 326 337 347 350 346 337 340 346 344 341 339 339 340 342 342 341 341 341 342 342 345 350 349 345 343 345 349 352 352 353 357 358 358
261 279 357 10 10 5 306 266 239 267 291 286 286 302 280 221 164 134 171 221 220 178 126 118 130 137 143 155 164 170 175 178 183 187 188 195 205 212 218 222 231 244 254 270 279 289 305 314 323 326 326 332 326 314 323 335 342 345 337 324 325 329 333 334 332 331 334 335 333 335 336 337 340 342 341 347 353 352 351 349 346 350 354 354 357 359 359
258 283 18 52 6 323 258 240 218 249 271 270 274 263 202 202 162 132 162 166 152 157 148 143 153 162 165 171 176 180 181 178 182 194 200 204 207 209 217 226 235 245 250 257 267 283 307 319 322 323 329 338 331 319 320 327 332 337 333 326 326 330 334 334 330 327 328 329 332 339 342 339 342 344 340 341 347 349 351 350 344 348 354 354 355 358 358
212 304 40 27 265 244 244 265 276 270 264 255 250 238 219 230 173 130 124 140 155 165 164 160 165 168 168 171 175 179 183 187 193 201 201 200 202 206 216 227 233 238 238 243 263 291 316 319 314 313 325 332 328 323 316 312 315 321 326 329 331 333 332 331 329 327 326 332 340 349 354 350 346 343 339 340 344 343 345 347 343 346 353 354 356 358 356
174 81 102 214 244 255 285 301 294 284 286 265 234 256 322 307 212 145 133 146 159 154 156 159 160 161 163 169 177 184 195 204 207 205 199 197 203 211 220 229 228 228 233 253 289 305 309 308 305 306 315 317 317 321 314 303 304 307 311 319 324 324 326 330 334 336 336 341 344 346 350 351 348 341 335 339 344 342 343 348 350 349 352 358 2 2 357
169 162 197 236 284 304 308 295 277 279 287 240 200 187 327 317 294 149 136 143 154 150 153 156 154 154 154 164 192 201 204 207 209 210 207 205 209 216 221 223 221 229 249 268 285 290 290 297 300 299 300 298 298 309 309 301 301 299 300 309 314 316 321 330 338 342 339 338 337 337 339 344 349 346 339 336 342 347 349 352 353 350 345 356 5 2 356
151 148 228 298 294 277 261 251 261 279 269 224 150 110 9 316 312 172 146 145 151 147 148 152 150 147 141 155 216 205 201 204 208 210 209 211 216 216 212 210 216 232 245 242 244 265 278 283 288 288 289 286 284 292 298 297 296 294 295 303 308 310 318 327 333 336 337 334 332 333 335 339 348 352 346 338 340 351 356 353 353 353 344 342 352 352 349
149 152 206 223 214 245 243 241 267 286 250 164 96 67 290 305 318 158 146 143 150 152 155 157 150 141 155 231 228 206 200 204 208 209 211 212 211 206 200 214 230 232 224 218 227 249 263 268 274 284 286 281 279 285 289 287 285 288 293 301 308 313 318 327 330 331 333 333 331 331 331 336 347 354 353 348 345 349 354 353 353 357 355 341 337 340 341
176 170 202 219 219 248 237 228 264 287 235 125 90 307 256 262 38 137 144 150 156 157 159 159 154 160 195 229 243 211 201 205 210 213 215 210 204 204 216 230 233 222 215 221 232 242 251 258 270 280 281 279 282 285 285 282 281 287 293 300 309 313 313 320 328 331 333 333 331 331 332 333 341 353 358 359 356 349 350 354 353 355 3 1 351 348 343
178 176 199 243 255 250 239 238 322 322 237 127 145 223 224 189 135 125 135 148 158 162 164 166 178 203 207 232 257 197 201 212 221 225 225 218 215 222 233 234 224 216 220 227 234 241 244 253 267 276 278 282 288 289 288 286 287 292 296 298 306 309 308 317 330 337 338 334 330 332 336 335 341 357 3 358 352 348 349 353 351 348 354 360 1 2 357
171 173 188 246 272 252 223 190 60 56 159 215 220 192 151 138 134 126 124 136 149 163 172 178 193 191 173 145 133 172 202 228 228 223 219 214 214 220 226 223 214 214 221 227 236 241 232 236 257 269 277 290 296 295 294 296 299 302 298 289 294 305 311 321 333 340 345 348 349 347 346 345 348 358 359 351 345 346 346 345 345 344 344 345 347 355 2
158 159 173 214 258 246 201 160 81 44 160 185 181 154 134 130 135 133 125 130 141 155 169 176 181 169 163 172 177 193 233 244 211 205 207 209 217 224 222 212 209 218 233 242 245 238 222 229 259 277 287 298 302 298 298 302 304 304 298 283 282 297 312 319 326 333 340 352 2 357 348 349 350 351 353 349 347 351 351 344 344 344 344 344 341 341 352
147 167 203 217 212 191 170 161 171 168 157 157 155 155 157 158 160 163 157 151 167 198 192 180 184 194 210 241 249 245 246 222 200 202 209 214 221 224 218 214 222 238 250 254 248 232 224 241 279 290 291 297 300 296 295 295 289 286 288 283 277 283 302 313 318 325 328 334 349 350 344 343 342 344 352 354 353 356 355 350 349 349 348 349 348 344 346
173 181 206 202 182 169 163 162 166 162 161 163 163 166 174 181 183 191 191 182 189 202 198 191 201 232 258 268 272 272 261 237 222 222 222 221 223 222 218 221 233 245 255 258 248 238 239 257 282 290 287 291 297 296 292 292 285 274 272 273 268 269 290 310 322 326 323 323 339 344 342 342 343 349 359 3 1 360 356 352 351 350 349 349 349 348 347
224 185 172 176 173 169 158 142 145 160 170 173 172 173 183 178 168 181 193 189 181 177 186 207 226 257 282 288 284 276 267 256 249 242 231 221 217 216 217 225 238 249 254 251 245 245 252 262 278 288 283 282 296 301 297 293 286 276 269 263 251 253 279 305 324 332 329 333 348 350 349 350 355 360 2 2 1 0 360 358 355 351 350 349 349 350 351
171 223 261 209 88 124 142 132 132 154 178 182 175 152 127 130 134 149 164 159 161 176 236 289 286 289 298 299 292 281 271 260 246 236 228 220 215 219 227 240 252 258 257 251 248 251 255 262 277 286 278 273 295 306 296 283 284 287 277 255 238 245 276 301 319 331 330 331 345 352 353 354 355 354 354 356 357 356 356 360 3 360 355 353 351 352 354
165 222 248 78 73 72 85 100 106 120 142 157 146 117 110 114 114 124 137 131 127 151 315 307 293 293 297 296 294 290 278 257 236 229 230 229 230 235 243 252 260 263 264 261 254 251 255 265 280 284 273 263 279 292 283 279 290 295 275 238 230 246 269 299 320 328 318 320 338 350 351 352 353 350 346 349 353 353 352 354 358 360 358 356 353 350 351
15 307 102 92 79 68 72 82 87 100 114 122 117 108 106 100 91 91 94 73 44 15 347 325 310 309 306 295 291 289 269 238 224 225 228 230 234 236 238 244 253 259 262 260 255 255 261 270 280 279 271 264 270 278 280 285 293 277 214 213 234 246 262 298 320 324 317 319 331 342 346 351 357 355 349 346 346 347 347 348 351 354 355 355 353 347 346
350 232 162 123 102 102 112 107 104 107 112 115 112 99 79 59 46 34 23 18 16 8 352 337 324 312 303 290 267 256 245 230 227 229 230 231 232 229 225 232 242 248 252 253 253 256 262 269 276 280 279 278 280 282 286 290 280 224 210 227 239 244 262 292 306 312 314 315 322 330 337 345 354 357 354 349 345 344 343 344 345 347 347 349 349 344 341
208 218 200 172 154 156 148 133 124 125 121 111 102 78 50 36 20 3 360 4 9 9 1 349 331 304 301 309 293 276 260 243 236 232 229 232 237 238 240 248 254 253 250 246 249 256 262 266 273 279 279 277 277 279 284 287 272 240 229 232 234 241 260 278 287 296 304 306 311 316 321 330 344 350 349 346 344 343 344 344 343 340 339 342 344 342 336
200 195 185 182 180 161 148 136 123 116 113 103 94 76 56 51 45 32 23 14 3 352 345 344 344 345 353 351 332 314 295 265 249 243 242 247 254 258 260 262 260 253 245 243 249 263 270 270 273 278 275 273 276 279 281 280 271 257 246 240 240 246 258 270 282 296 305 309 311 310 311 320 335 343 341 339 338 338 341 345 347 343 338 338 342 342 335
160 170 166 168 176 163 151 145 135 132 144 137 115 108 103 86 66 47 27 4 348 343 343 343 347 349 350 345 335 327 317 288 258 251 253 256 259 261 262 259 255 250 245 246 258 273 278 277 276 274 274 279 287 290 288 283 278 270 260 253 254 258 268 279 289 297 303 307 305 303 307 319 329 332 334 335 336 337 338 342 347 349 346 342 343 345 340
139 156 162 169 176 171 168 165 150 141 152 152 135 123 116 93 55 30 349 327 338 354 353 334 332 341 343 337 333 328 320 299 266 256 260 265 269 271 270 264 257 250 246 249 258 267 272 272 268 265 268 276 281 278 275 274 276 276 272 265 263 264 272 283 290 294 300 302 301 300 303 314 320 321 325 331 334 338 344 344 343 346 350 349 347 346 345
174 174 177 178 171 175 184 181 162 151 155 165 161 150 145 162 184 229 277 292 314 332 331 320 323 333 340 341 336 325 315 306 286 278 282 285 287 287 283 269 253 241 240 246 252 258 265 268 261 252 251 259 263 260 259 260 264 268 270 269 267 266 273 282 291 301 306 305 304 302 299 304 311 315 321 328 332 339 349 345 338 338 344 347 349 349 347
233 221 219 219 197 184 183 177 164 158 158 159 156 148 146 157 154 113 360 300 301 307 311 314 314 315 327 336 333 320 317 322 317 309 307 303 296 291 283 269 250 236 235 242 250 258 267 269 260 247 244 252 259 255 250 250 250 248 247 250 258 260 265 275 285 294 295 293 296 301 303 309 316 320 325 331 336 343 347 339 333 334 337 336 337 341 341
239 221 225 233 212 182 168 160 157 157 153 147 148 148 151 152 130 82 333 282 286 295 310 323 319 315 322 328 327 322 323 321 315 308 304 299 292 282 274 266 254 245 244 250 255 259 261 263 261 254 248 250 252 246 244 246 240 228 221 214 216 224 215 204 220 258 285 296 303 312 316 319 321 323 327 330 334 340 338 329 325 329 330 326 324 326 329
191 196 195 184 164 158 152 143 138 134 126 125 133 133 129 143 140 99 75 349 314 313 335 349 343 334 333 330 322 314 306 300 298 291 282 278 278 274 271 266 257 252 251 250 254 260 262 263 263 256 248 246 246 240 234 228 217 213 215 213 211 212 207 206 225 275 311 311 299 305 314 318 320 324 329 331 330 329 327 322 320 320 322 324 327 329 334
148 155 153 148 148 149 142 129 120 116 115 125 129 110 99 108 115 99 85 59 13 351 346 339 331 325 324 318 309 300 289 282 281 278 273 269 267 267 269 263 253 249 246 240 251 275 283 268 251 239 223 210 202 196 200 200 191 184 179 173 168 170 185 207 220 231 236 235 266 299 312 319 326 336 348 353 347 335 326 325 327 324 322 324 328 333 339
154 147 144 146 148 144 137 133 131 126 125 133 123 104 95 94 86 73 51 19 1 344 327 317 312 310 307 301 294 287 279 274 273 273 273 271 267 266 266 258 248 248 250 250 264 283 288 275 268 265 246 216 214 245 264 236 198 189 192 191 173 154 157 190 198 189 193 220 262 302 319 329 338 350 2 7 3 351 336 332 336 338 335 333 335 340 343
163 156 157 162 159 149 140 138 137 134 131 124 112 103 94 75 54 36 14 356 342 326 315 311 309 308 307 302 291 279 273 272 272 272 269 264 259 255 253 247 245 248 256 269 279 276 265 261 267 275 278 277 277 277 268 252 235 236 243 222 175 161 160 161 161 162 173 189 211 274 315 328 339 352 3 7 6 355 341 336 338 341 344 346 348 348 347
198 194 186 177 168 158 150 149 150 148 139 126 114 100 78 53 32 16 4 345 327 318 317 317 313 312 315 315 303 284 273 270 268 264 256 250 252 254 250 245 247 254 264 275 271 253 246 246 246 255 276 300 344 121 166 162 139 171 169 159 153 155 157 152 153 172 181 179 187 240 289 322 7 22 18 12 8 1 351 346 345 346 351 358 0 353 346
211 193 170 159 157 157 157 156 153 149 140 130 119 102 71 40 14 2 352 332 319 320 327 325 320 319 323 324 311 284 263 252 244 241 234 236 258 269 254 223 228 249 227 198 182 181 190 196 198 213 270 260 149 129 119 115 125 153 167 168 167 167 166 167 178 193 187 174 180 200 206 49 42 32 19 6 357 352 347 347 350 354 360 8 13 8 357
177 155 145 145 146 146 147 146 142 140 137 127 113 104 85 23 358 354 337 311 313 324 326 325 325 324 323 324 313 266 249 218 198 209 212 215 233 243 229 209 240 244 193 169 161 166 179 183 179 184 221 197 155 131 124 138 160 163 161 164 168 167 166 169 173 173 174 182 218 326 9 19 8 358 353 346 340 336 334 336 343 351 359 7 13 14 10
154 149 144 140 139 141 142 138 132 131 129 120 113 114 110 39 5 352 270 275 302 316 319 324 328 321 313 308 269 233 321 69 159 258 241 188 207 217 209 203 222 221 202 184 172 176 189 191 180 198 220 199 153 139 142 164 177 159 144 148 160 165 167 164 150 139 137 344 338 334 330 328 325 324 326 324 322 326 330 330 334 341 351 3 11 14 14
146 148 142 137 138 142 137 126 120 123 126 127 129 132 127 101 47 210 222 250 283 303 312 320 322 312 300 295 289 282 275 263 255 247 200 170 185 195 186 176 177 186 194 201 207 210 213 215 204 201 199 174 152 153 159 160 163 162 159 166 174 173 176 178 166 360 335 335 337 332 327 326 329 338 347 344 340 345 347 345 349 357 7 16 20 19 21
141 142 140 138 139 139 134 130 132 133 130 128 133 142 150 168 199 202 232 276 294 301 306 311 312 305 295 297 310 272 223 218 224 210 192 192 200 194 172 158 153 151 156 172 167 155 179 190 180 162 151 146 154 167 173 176 193 220 232 237 245 260 280 303 320 330 338 345 350 353 359 7 13 23 37 45 50 52 54 54 53 53 52 49 45 42 41
135 137 138 138 138 137 138 140 138 132 126 119 118 127 146 170 189 247 290 298 296 294 297 306 309 285 256 236 187 171 182 182 165 159 165 173 180 174 158 142 129 107 91 93 99 101 110 142 154 135 123 126 149 174 184 196 229 250 253 262 281 299 314 324 331 341 350 356 360 5 19 37 51 58 62 67 68 68 68 64 61 61 64 63 61 60 58
135 138 141 142 144 147 149 147 138 127 119 111 104 103 113 102 325 324 317 303 286 279 278 266 240 223 210 193 172 168 170 161 151 153 158 162 166 162 145 124 109 100 91 84 85 93 103 124 139 135 133 148 171 189 202 218 241 258 270 290 308 321 330 338 349 360 5 10 17 27 38 50 60 61 58 55 54 56 58 58 57 58 59 58 56 52 49
148 152 152 150 152 154 154 151 143 131 123 115 102 78 360 321 322 325 324 298 280 256 177 161 166 172 169 163 157 159 162 159 155 155 158 160 165 162 138 115 106 96 82 69 66 71 89 126 134 129 139 168 185 203 226 242 255 269 285 301 313 325 333 341 351 360 7 20 44 55 58 61 62 56 51 51 51 51 54 57 60 64 66 63 59 53 44
162 162 157 153 156 159 158 153 145 139 137 132 108 48 348 318 343 21 85 126 145 162 163 161 159 157 160 163 161 162 163 160 157 154 150 145 141 138 124 116 113 105 65 348 2 20 19 75 164 157 151 153 171 213 252 267 274 282 292 304 313 321 331 342 354 5 19 53 77 78 78 81 78 67 61 59 58 56 57 59 59 63 70 70 64 55 48
160 158 154 154 160 164 161 152 146 148 157 161 128 101 91 111 115 106 115 146 164 170 166 164 163 163 163 165 166 167 165 162 161 163 158 146 136 126 120 119 118 107 22 355 6 22 25 15 358 292 244 221 216 239 259 270 288 313 326 329 333 341 355 8 22 40 63 78 80 80 87 97 95 81 63 50 39 36 48 60 57 52 54 54 49 46 44
156 158 159 159 158 155 150 144 144 154 163 151 137 129 128 135 143 138 135 164 185 177 159 165 177 178 170 162 159 159 158 158 159 164 163 157 152 149 143 122 42 360 354 354 2 14 20 15 2 332 295 275 270 284 295 304 339 356 350 345 348 353 355 8 60 95 96 89 86 90 98 103 95 59 27 18 13 12 31 60 55 11 349 355 7 13 9
149 151 153 151 147 144 146 151 158 167 167 150 140 143 148 151 153 141 132 150 171 167 159 166 177 172 166 163 160 154 149 147 146 150 162 172 173 167 168 320 324 328 334 342 354 10 22 25 20 2 332 307 308 318 319 325 345 356 358 10 28 35 175 165 145 135 125 106 103 118 133 145 268 319 328 334 334 331 326 318 307 301 301 303 307 312 321
145 144 144 143 143 147 151 154 160 170 173 154 145 150 155 153 148 145 143 147 154 152 148 146 145 146 150 156 160 160 157 151 145 141 144 155 148 134 350 313 308 307 314 325 346 19 40 43 31 14 355 335 329 325 318 318 331 342 359 39 58 84 146 163 152 140 144 159 160 159 174 232 283 298 303 304 303 300 294 291 293 295 294 290 288 289 295
140 135 129 130 138 148 155 157 159 160 154 146 147 155 158 155 158 160 156 149 147 145 144 142 139 137 138 143 151 158 166 167 156 147 146 151 148 124 57 335 308 291 290 301 324 24 64 72 38 349 332 327 327 327 328 335 348 13 71 77 67 78 130 163 158 130 124 137 160 210 282 298 303 305 306 306 305 304 301 299 299 299 297 292 288 287 290
129 123 120 124 129 136 144 149 152 150 144 143 148 156 158 161 166 167 160 152 149 149 149 150 147 141 140 146 154 161 169 179 175 158 158 164 163 131 73 314 251 227 259 290 311 347 45 70 39 338 325 322 323 331 355 17 40 92 114 103 82 88 117 136 154 306 303 291 290 297 302 304 304 306 307 307 306 305 304 303 304 307 313 317 320 320 325
115 109 113 120 128 136 142 144 149 153 151 150 156 162 169 176 177 172 163 157 155 155 156 158 154 147 147 156 163 167 173 181 179 162 163 170 162 123 180 228 224 209 212 262 298 317 348 17 24 12 350 337 330 331 84 93 102 121 125 102 92 105 111 101 37 328 310 301 297 298 299 301 302 304 305 307 308 308 306 307 313 325 346 6 14 13 9
113 115 117 119 128 141 148 149 158 167 168 169 174 178 180 184 184 179 172 167 164 163 161 158 154 150 153 157 157 160 168 175 171 163 167 176 173 157 170 200 218 213 193 182 200 269 326 6 25 26 4 337 317 252 132 120 126 137 118 17 58 90 66 348 336 330 322 310 300 296 298 301 305 307 309 315 323 331 338 345 350 360 14 17 9 358 352
120 134 137 135 135 137 130 128 151 169 172 173 176 177 175 177 182 182 179 175 173 171 169 166 161 159 161 161 159 160 171 183 192 200 208 212 216 215 210 208 205 177 146 134 131 106 37 25 26 23 9 342 291 200 139 117 125 156 273 291 285 292 310 314 316 321 325 319 309 303 305 309 311 312 315 323 333 343 352 355 351 348 350 348 344 344 347